Zurück zum Katalog

M1

AktivWissenschaftSSO
NORAD 43779·PAYLOAD·🇦🇺 Australia

Gestartet Dec 3, 2018 von Vandenberg Space Force Base

Loading…

Nächste Überflüge (nächste 24 Stunden)

TLE

AktuellSource: Space-Track

Epoche: Sep 13, 2026, 15:11 UTC

1 43779U 18099X   26256.63312568  .00001613  00000-0  10871-3 0  9993
2 43779  97.4310 296.7218 0014508  90.6744 269.6147 15.07960328425466

Verfolge M1 in Echtzeit mit AllMySat

Download on the App Store